Flag for U.S.A. Weather past 2 weeks in Carrollton, Texas, U.S.A.

Now
73 °F

Thunderstorms. Mostly cloudy.


Feels Like: 73 °F
Forecast: 79 / 95 °F
Wind: 13 mph from Southeast

Location: Dallas Love Field

Current Time: Jun 30, 2015 at 4:29:28 AM

Latest Report: Jun 30, 2015 at 3:53 AM


Visibility: 4 mi

Pressure: 29.98 "Hg

Humidity: 81%

Dew point: 67 °F

Location of CarrolltonLocation

Historic Weather in Carrollton — Graph

°F

Carrollton temperature yesterday

Maximum temperature yesterday: 96 °F (at 5:53 PM)
Minimum temperature yesterday: 78 °F (at 5:53 AM)
Average temperature yesterday: 86 °F

Past Weeks' High & Low Weather Summary

 TemperatureHumidityPressure
High96 °F (Jun 29, 5:53 PM)94% (Jun 17, 6:53 AM)30.16 "Hg (Jun 17, 6:53 AM)
Low71 °F (Jun 28, 4:53 AM)26% (Jun 28, 6:53 PM)29.66 "Hg (Jun 17, 4:53 PM)
Average83 °F65%29.97 "Hg
* Reported Jun 15 2:53 AM — Jun 30 2:57 AM, Carrollton, Weather by CustomWeather, © 2015

Note: Actual official high and low records may vary slightly from our data, if they occured in-between our weather recording intervals... More about our weather records

Advertising

Carrollton weather history for previous 24 hours

 ConditionsComfort  
Time TempWeatherWind HumidityBarometerVisibility
2:57 AM
Tue, Jun 30
78 °FThunderstorms. Overcast.17 mph58%30.03 "Hg10 mi
1:53 AM82 °FPartly cloudy.No wind63%29.96 "Hg10 mi
12:53 AM83 °FPassing clouds.5 mph63%29.96 "Hg10 mi
11:53 PM
Mon, Jun 29
84 °FPassing clouds.6 mph63%29.93 "Hg10 mi
10:53 PM86 °FPassing clouds.6 mph65%29.94 "Hg10 mi
9:53 PM88 °FPassing clouds.7 mph59%29.92 "Hg10 mi
8:53 PM90 °FScattered clouds.14 mph56%29.89 "Hg10 mi
7:53 PM93 °FScattered clouds.6 mph41%29.87 "Hg10 mi
6:53 PM94 °FBroken clouds.6 mph40%29.86 "Hg10 mi
5:53 PM96 °FBroken clouds.7 mph37%29.88 "Hg10 mi
4:53 PM95 °FBroken clouds.6 mph39%29.89 "Hg10 mi
3:53 PM95 °FBroken clouds.7 mph36%29.90 "Hg10 mi
2:53 PM94 °FPartly sunny.8 mph43%29.92 "Hg10 mi
1:53 PM93 °FBroken clouds.7 mph47%29.93 "Hg10 mi
12:53 PM91 °FPartly sunny.12 mph54%29.95 "Hg10 mi
11:53 AM90 °FPartly sunny.10 mph57%29.95 "Hg10 mi
10:53 AM87 °FPartly sunny.7 mph61%29.97 "Hg10 mi
9:53 AM84 °FPartly sunny.6 mph70%29.98 "Hg10 mi
8:53 AM82 °FPartly sunny.6 mph72%29.97 "Hg10 mi
7:53 AM79 °FScattered clouds.7 mph79%29.96 "Hg10 mi
6:53 AM78 °FPassing clouds.6 mph79%29.96 "Hg10 mi
5:53 AM78 °FPassing clouds.No wind79%29.95 "Hg10 mi
4:53 AM79 °FPassing clouds.7 mph74%29.93 "Hg10 mi
Weather by CustomWeather, © 2015

See weather overviewHow to use our weather pages